TimeEST,TemperatureF,Dew PointF,Humidity,Sea Level PressureIn,VisibilityMPH,Wind Direction,Wind SpeedMPH,Gust SpeedMPH,PrecipitationIn,Events,Conditions,WindDirDegrees,DateUTC
12:53 AM,68.0,57.9,70,30.19,10.0,NE,15.0,23.0,N/A,,Partly Cloudy,40,2013-01-23 05:53:00
1:53 AM,68.0,57.9,70,30.18,10.0,NE,13.8,-,N/A,,Mostly Cloudy,40,2013-01-23 06:53:00
2:53 AM,66.9,59.0,76,30.18,10.0,NE,9.2,-,N/A,,Partly Cloudy,40,2013-01-23 07:53:00
3:53 AM,66.9,57.9,73,30.18,10.0,NE,10.4,19.6,N/A,,Mostly Cloudy,50,2013-01-23 08:53:00
4:53 AM,66.9,59.0,76,30.17,10.0,NE,8.1,-,N/A,,Scattered Clouds,50,2013-01-23 09:53:00
5:53 AM,66.9,59.0,76,30.19,10.0,NE,9.2,17.3,N/A,,Overcast,40,2013-01-23 10:53:00
6:53 AM,68.0,59.0,73,30.21,10.0,NE,10.4,-,N/A,,Mostly Cloudy,40,2013-01-23 11:53:00
7:53 AM,68.0,59.0,73,30.22,10.0,NE,10.4,-,N/A,,Mostly Cloudy,50,2013-01-23 12:53:00
8:53 AM,69.1,57.9,68,30.24,10.0,NE,12.7,20.7,N/A,,Mostly Cloudy,50,2013-01-23 13:53:00
9:53 AM,70.0,57.9,65,30.25,10.0,NE,15.0,20.7,N/A,,Mostly Cloudy,50,2013-01-23 14:53:00
10:53 AM,70.0,57.0,63,30.26,10.0,NE,11.5,19.6,N/A,,Mostly Cloudy,50,2013-01-23 15:53:00
11:53 AM,70.0,57.9,65,30.25,10.0,NE,11.5,18.4,N/A,,Mostly Cloudy,50,2013-01-23 16:53:00
12:53 PM,72.0,57.2,60,30.24,10.0,NE,12.7,19.6,N/A,,Mostly Cloudy,40,2013-01-23 17:53:00
1:53 PM,73.0,57.2,57,30.22,10.0,ENE,13.8,20.7,N/A,,Mostly Cloudy,70,2013-01-23 18:53:00
2:53 PM,75.0,57.2,54,30.20,10.0,NE,16.1,23.0,N/A,,Scattered Clouds,50,2013-01-23 19:53:00
3:53 PM,73.9,57.2,56,30.20,10.0,NE,12.7,19.6,N/A,,Scattered Clouds,40,2013-01-23 20:53:00
4:53 PM,71.1,59.0,66,30.22,10.0,NE,8.1,17.3,N/A,,Scattered Clouds,40,2013-01-23 21:53:00
5:53 PM,71.1,54.0,55,30.23,10.0,NE,9.2,-,N/A,,Scattered Clouds,50,2013-01-23 22:53:00
6:53 PM,69.1,55.9,63,30.24,10.0,ENE,6.9,-,N/A,,Scattered Clouds,60,2013-01-23 23:53:00
7:53 PM,69.1,57.0,65,30.24,10.0,NE,9.2,-,N/A,,Mostly Cloudy,50,2013-01-24 00:53:00
8:53 PM,69.1,57.0,65,30.26,10.0,NE,8.1,-,N/A,,Scattered Clouds,50,2013-01-24 01:53:00
9:53 PM,68.0,55.9,65,30.27,10.0,NE,8.1,-,N/A,,Scattered Clouds,50,2013-01-24 02:53:00
10:53 PM,68.0,57.0,68,30.26,10.0,NE,6.9,-,N/A,,Clear,50,2013-01-24 03:53:00
11:53 PM,66.9,57.0,70,30.25,10.0,NE,6.9,-,N/A,,Clear,40,2013-01-24 04:53:00